Location: Unspecified
(34.4720°N, 0.0000°E)
Time: 02:04:19
(UTC+00:00)

Courier 1B - Visible Passes

Search period start: 04 April 2026 00:00
Search period end: 14 April 2026 00:00
Orbit: 962 x 1208 km, 28.3° (Epoch: 28 March)

Date Brightness Start Highest point End Pass type
(mag) Time Alt. Az. Time Alt. Az. Time Alt. Az.
4 Apr 8.0 03:13:56 54° S 03:13:56 54° S 03:21:20 10° ESE visible
4 Apr 8.4 05:00:48 11° W 05:07:47 47° SSW 05:15:14 10° ESE visible
5 Apr 9.1 02:23:20 30° ESE 02:23:20 30° ESE 02:27:12 10° E visible
5 Apr 8.2 04:10:12 30° WSW 04:13:48 51° S 04:21:18 10° ESE visible
6 Apr 10.2 01:32:47 11° E 01:32:47 11° E 01:33:03 10° E visible
6 Apr 8.0 03:19:39 53° S 03:19:48 53° S 03:27:18 10° ESE visible
6 Apr 8.6 05:06:53 10° W 05:13:43 37° SSW 05:20:44 10° SE visible
7 Apr 8.9 02:29:09 32° ESE 02:29:09 32° ESE 02:33:14 10° ESE visible
7 Apr 8.4 04:16:03 26° WSW 04:19:46 42° SSW 04:26:59 10° SE visible
8 Apr 10.1 01:38:43 12° ESE 01:38:43 12° ESE 01:39:08 10° ESE visible
8 Apr 8.1 03:25:37 47° SSW 03:25:49 47° S 03:33:06 10° ESE visible
9 Apr 9.0 02:35:15 30° SE 02:35:15 30° SE 02:39:09 10° ESE visible
9 Apr 8.7 04:22:09 22° WSW 04:25:41 31° SSW 04:32:18 10° SE visible
10 Apr 10.1 01:44:59 11° ESE 01:44:59 11° ESE 01:45:08 10° ESE visible
10 Apr 8.4 03:31:54 37° SSW 03:31:54 37° SSW 03:38:38 10° SE visible
11 Apr 9.2 02:41:43 24° SE 02:41:43 24° SE 02:44:51 10° SE visible
11 Apr 9.0 04:28:38 17° SW 04:31:31 21° SSW 04:36:58 10° SSE visible
11 Apr 9.4 20:00:55 10° S 20:01:21 11° S 20:01:21 11° S visible
12 Apr 8.8 03:38:34 25° SSW 03:38:34 25° SSW 03:43:42 10° SSE visible
12 Apr 9.5 20:57:42 10° SSW 20:58:29 13° SSW 20:58:29 13° SSW visible
13 Apr 9.6 02:48:35 16° SSE 02:48:35 16° SSE 02:50:12 10° SE visible
13 Apr 9.4 04:35:31 11° SW 04:37:20 12° SSW 04:40:07 10° S visible
13 Apr 8.8 20:04:39 10° SSW 20:08:38 21° SSE 20:08:38 21° SSE visible
